EW1613 Weather Reports


Display with metric or nautical units.
time (UTC)temp
F
wind
direction
speed
MPH
gust
MPH
rain 1hr
in
rain 24hr
in
rain mn
in
humidity
%
barometer
mb
20260506215449 59 315 0.0 2.0 0.00 0.28 0.06 93 1011.6
20260506214959 59 315 1.0 2.0 0.00 0.28 0.06 93 1011.7
20260506214456 59 315 0.0 2.0 0.00 0.28 0.06 93 1011.7
20260506213948 59 315 0.0 2.0 0.00 0.28 0.06 92 1011.7
20260506213444 59 315 1.0 3.0 0.00 0.28 0.06 92 1011.6
20260506212934 59 339 1.0 3.0 0.00 0.28 0.06 92 1011.6
20260506212451 59 355 0.0 1.0 0.00 0.28 0.06 92 1011.6
20260506211947 59 355 0.0 1.0 0.00 0.28 0.06 92 1011.6
20260506211436 59 355 0.0 0.0 0.00 0.28 0.06 92 1011.6
20260506210950 59 355 0.0 0.0 0.00 0.28 0.06 92 1011.6
20260506210441 59 355 0.0 0.0 0.00 0.28 0.06 92 1011.5
20260506205939 59 355 0.0 0.0 0.00 0.28 0.06 92 1011.6
20260506205516 60 355 0.0 0.0 0.00 0.28 0.06 92 1011.4
20260506204944 60 355 0.0 0.0 0.00 0.28 0.06 92 1011.4
20260506204501 60 355 0.0 0.0 0.00 0.28 0.06 92 1011.4
20260506203947 60 355 0.0 0.0 0.00 0.28 0.06 92 1011.3
20260506203438 60 355 0.0 0.0 0.00 0.28 0.06 92 1011.4
20260506202952 60 355 0.0 1.0 0.00 0.28 0.06 92 1011.4
20260506202506 60 355 0.0 2.0 0.00 0.28 0.06 92 1011.3
20260506201935 60 355 1.0 2.0 0.00 0.28 0.06 92 1011.3
20260506201447 60 355 0.0 1.0 0.00 0.28 0.06 91 1011.3
20260506200940 60 355 0.0 3.0 0.00 0.28 0.06 91 1011.3
20260506200453 60 355 0.0 3.0 0.00 0.28 0.06 91 1011.2
20260506195941 61 355 0.0 4.0 0.00 0.28 0.06 91 1011.1
20260506195458 61 339 0.0 3.0 0.00 0.28 0.06 91 1011.0
20260506194947 61 339 1.0 3.0 0.00 0.28 0.06 90 1011.0
20260506194458 61 26 1.0 3.0 0.00 0.28 0.06 90 1010.9
20260506193947 61 63 1.0 2.0 0.00 0.28 0.06 90 1010.9
20260506193438 61 65 0.0 2.0 0.00 0.28 0.06 89 1010.7
20260506192952 61 65 0.0 0.0 0.00 0.28 0.06 89 1010.8
20260506192447 61 65 0.0 2.0 0.00 0.28 0.06 89 1010.8
20260506191938 62 65 0.0 2.0 0.00 0.28 0.06 89 1010.7
20260506191433 62 65 0.0 1.0 0.00 0.28 0.06 89 1010.7
20260506190949 62 65 0.0 2.0 0.00 0.28 0.06 89 1010.7
20260506190440 62 65 1.0 3.0 0.00 0.28 0.06 88 1010.5
20260506185936 62 65 1.0 3.0 0.00 0.28 0.06 88 1010.5
20260506185451 62 59 1.0 3.0 0.00 0.28 0.06 88 1010.5
20260506185002 62 59 2.0 3.0 0.00 0.28 0.06 88 1010.5
20260506184435 62 28 0.0 2.0 0.00 0.28 0.06 88 1010.5
20260506183946 62 27 0.0 3.0 0.00 0.28 0.06 88 1010.4
20260506183443 62 26 1.0 4.0 0.00 0.28 0.06 88 1010.3
20260506182934 63 24 1.0 3.0 0.00 0.28 0.06 87 1010.1
20260506182450 63 38 0.0 3.0 0.00 0.28 0.06 87 1010.0
20260506181939 63 38 0.0 3.0 0.00 0.28 0.06 87 1010.0
20260506181436 63 43 1.0 4.0 0.00 0.28 0.06 87 1009.9
20260506180951 63 41 0.0 4.0 0.00 0.28 0.06 87 1010.0
20260506180438 63 45 0.0 5.0 0.00 0.28 0.06 87 1010.0
20260506175936 63 40 1.0 5.0 0.00 0.28 0.06 87 1010.0
20260506175450 63 55 1.0 5.0 0.00 0.28 0.06 87 1010.0
20260506174938 63 55 3.0 5.0 0.00 0.28 0.06 87 1010.0
20260506174435 64 78 2.0 5.0 0.00 0.28 0.06 87 1009.9
20260506173951 64 53 2.0 6.0 0.00 0.28 0.06 87 1009.8
20260506173440 64 69 3.0 6.0 0.00 0.28 0.06 86 1009.9
20260506172935 64 20 3.0 5.0 0.00 0.28 0.06 87 1010.1
20260506172451 64 44 2.0 5.0 0.00 0.28 0.06 87 1010.0
20260506171942 64 51 2.0 5.0 0.00 0.28 0.06 87 1009.7
20260506171437 64 60 2.0 5.0 0.00 0.28 0.06 87 1009.6
20260506170946 64 61 2.0 5.0 0.00 0.28 0.06 87 1009.7
20260506170443 64 69 2.0 8.0 0.00 0.28 0.06 87 1009.6
20260506165934 64 62 5.0 8.0 0.00 0.28 0.06 87 1009.6
20260506165450 64 61 3.0 5.0 0.00 0.28 0.06 87 1009.5
20260506164943 64 76 2.0 8.0 0.00 0.28 0.06 87 1009.7
20260506164434 64 68 4.0 9.0 0.00 0.28 0.06 86 1009.8
20260506164010 64 61 4.0 8.0 0.00 0.28 0.06 86 1009.7
20260506163444 64 71 3.0 6.0 0.00 0.28 0.06 86 1009.8
20260506163017 64 76 3.0 6.0 0.00 0.28 0.06 86 1009.7
20260506162446 64 86 3.0 6.0 0.00 0.28 0.06 86 1009.7
20260506161941 64 82 3.0 8.0 0.00 0.28 0.06 85 1009.6
20260506161458 64 86 5.0 8.0 0.00 0.28 0.06 85 1009.7
20260506160952 65 86 3.0 5.0 0.00 0.28 0.06 86 1009.7
20260506160443 64 75 2.0 5.0 0.00 0.28 0.06 86 1009.8
20260506155959 64 67 2.0 5.0 0.00 0.28 0.06 86 1009.8
20260506155448 64 70 2.0 7.0 0.00 0.28 0.06 86 1009.9
20260506154943 64 87 4.0 7.0 0.00 0.28 0.06 85 1009.8
20260506154432 64 76 2.0 8.0 0.00 0.28 0.06 86 1009.9
20260506153949 64 53 3.0 8.0 0.00 0.28 0.06 86 1009.8
20260506153440 64 71 2.0 6.0 0.00 0.28 0.06 86 1009.8
20260506152957 65 49 3.0 6.0 0.00 0.28 0.06 86 1009.7
20260506152452 65 63 3.0 6.0 0.00 0.28 0.06 87 1009.7
20260506151949 65 59 3.0 6.0 0.00 0.28 0.06 86 1009.7
20260506151438 65 67 2.0 7.0 0.00 0.28 0.06 86 1009.9
20260506150954 65 74 2.0 7.0 0.00 0.28 0.06 86 1009.9
20260506150445 65 39 1.0 5.0 0.00 0.28 0.06 87 1009.8
20260506145944 64 44 2.0 9.0 0.00 0.28 0.06 87 1009.8
20260506145434 64 41 3.0 9.0 0.00 0.28 0.06 87 1009.9
20260506145011 64 77 3.0 7.0 0.00 0.28 0.06 88 1009.8
20260506144446 64 85 3.0 5.0 0.00 0.28 0.06 88 1009.9
20260506143935 64 45 3.0 4.0 0.00 0.28 0.06 89 1009.9
20260506143434 64 74 2.0 6.0 0.00 0.28 0.06 89 1010.0
20260506142945 64 74 3.0 6.0 0.00 0.28 0.06 89 1010.0
20260506142443 64 51 2.0 6.0 0.04 0.28 0.06 90 1010.1
20260506141933 63 31 1.0 6.0 0.04 0.28 0.06 91 1010.1
20260506141445 63 62 4.0 6.0 0.04 0.28 0.06 90 1010.1
20260506140934 63 69 3.0 6.0 0.04 0.28 0.06 91 1010.1
20260506140451 63 69 3.0 6.0 0.04 0.28 0.06 91 1010.1
20260506135949 63 74 3.0 7.0 0.04 0.28 0.06 91 1010.1
20260506135456 63 87 3.0 6.0 0.04 0.28 0.06 91 1010.1
20260506134951 63 88 2.0 4.0 0.04 0.28 0.06 91 1010.0
20260506134447 62 82 2.0 6.0 0.04 0.28 0.06 91 1010.0
20260506133936 62 76 3.0 7.0 0.04 0.28 0.06 91 1010.1
20260506133433 62 47 2.0 9.0 0.04 0.28 0.06 90 1010.1
20260506132952 62 90 4.0 9.0 0.04 0.28 0.06 90 1010.1
20260506132442 62 68 4.0 8.0 0.04 0.24 0.05 90 1010.1
20260506132000 62 24 1.0 4.0 0.08 0.24 0.05 90 1010.6
20260506131454 62 57 0.0 3.0 0.08 0.24 0.05 90 1010.7
20260506130944 62 57 1.0 3.0 0.12 0.24 0.05 90 1010.7
20260506130500 62 52 1.0 5.0 0.12 0.24 0.05 90 1010.7
20260506125955 62 57 2.0 5.0 0.12 0.24 0.05 90 1010.7
20260506125445 62 63 2.0 4.0 0.12 0.24 0.05 90 1010.7
20260506124943 62 74 2.0 3.0 0.12 0.24 0.05 90 1010.7
20260506124434 62 73 1.0 3.0 0.12 0.24 0.05 89 1010.6
20260506123948 63 84 0.0 3.0 0.12 0.24 0.05 89 1010.7
20260506123438 63 89 1.0 3.0 0.12 0.24 0.05 88 1010.7
20260506122932 63 143 1.0 4.0 0.12 0.24 0.05 88 1010.7
20260506122447 63 119 2.0 6.0 0.08 0.20 0.04 88 1010.8
20260506121957 63 82 2.0 6.0 0.04 0.16 0.03 87 1010.6
20260506121516 63 68 2.0 5.0 0.04 0.16 0.03 86 1010.6
20260506120945 63 51 3.0 5.0 0.00 0.12 0.02 86 1010.6
20260506120441 63 72 2.0 4.0 0.00 0.12 0.02 85 1010.8
20260506115957 63 58 1.0 4.0 0.00 0.12 0.02 86 1010.7
20260506115446 63 79 1.0 5.0 0.00 0.12 0.02 85 1010.8
20260506114944 63 73 3.0 5.0 0.00 0.12 0.02 85 1010.8
20260506114452 63 99 2.0 4.0 0.00 0.12 0.02 86 1010.8
20260506113945 63 105 1.0 6.0 0.00 0.12 0.02 86 1010.9
20260506113434 63 109 3.0 7.0 0.00 0.12 0.02 86 1011.0
20260506112950 63 109 2.0 7.0 0.00 0.12 0.02 86 1011.1
20260506112440 63 100 2.0 6.0 0.00 0.12 0.02 86 1011.1
20260506111937 63 86 2.0 4.0 0.00 0.12 0.02 86 1011.1
20260506111454 63 91 1.0 4.0 0.00 0.12 0.02 86 1011.1
20260506110941 62 72 1.0 4.0 0.00 0.12 0.02 86 1011.2
20260506110438 62 71 2.0 4.0 0.00 0.12 0.02 87 1011.2
20260506105955 62 82 1.0 4.0 0.00 0.12 0.02 87 1011.3
20260506105444 62 76 1.0 4.0 0.00 0.16 0.02 88 1011.3
20260506105002 62 90 2.0 4.0 0.00 0.16 0.02 88 1011.4
20260506104456 62 105 1.0 4.0 0.00 0.16 0.02 88 1011.5
20260506103944 62 113 1.0 4.0 0.00 0.16 0.02 88 1011.5
20260506103459 62 92 1.0 6.0 0.00 0.16 0.02 88 1011.5
20260506102954 62 87 2.0 6.0 0.00 0.16 0.02 88 1011.6
20260506102506 62 79 3.0 6.0 0.00 0.16 0.02 87 1011.4
20260506101932 62 69 3.0 8.0 0.00 0.16 0.02 87 1011.5
20260506101448 62 128 1.0 8.0 0.00 0.16 0.02 88 1011.6
20260506100938 62 82 3.0 6.0 0.00 0.16 0.02 88 1011.6
20260506100434 61 82 1.0 4.0 0.00 0.16 0.02 88 1011.6
20260506095953 61 77 1.0 3.0 0.00 0.16 0.02 88 1011.7
20260506095442 61 74 1.0 4.0 0.00 0.31 0.02 88 1011.8
20260506094958 61 71 0.0 4.0 0.00 0.31 0.02 88 1011.7
20260506094449 61 78 1.0 3.0 0.00 0.31 0.02 88 1011.7
20260506094007 61 74 1.0 3.0 0.00 0.31 0.02 88 1011.6
20260506093435 61 60 0.0 4.0 0.00 0.31 0.02 88 1011.7
20260506092951 61 44 0.0 4.0 0.00 0.31 0.02 88 1011.7
20260506092447 61 53 0.0 3.0 0.00 0.31 0.02 89 1011.7
20260506091955 61 46 1.0 4.0 0.00 0.31 0.02 89 1011.7
20260506091451 61 19 1.0 4.0 0.00 0.31 0.02 89 1011.7
20260506091006 61 63 1.0 4.0 0.00 0.31 0.02 89 1011.7
20260506090443 61 34 1.0 4.0 0.00 0.31 0.02 90 1011.8
20260506085933 61 32 2.0 5.0 0.00 0.35 0.02 90 1011.6
20260506085449 61 40 1.0 5.0 0.00 0.35 0.02 91 1011.6
20260506084945 60 62 2.0 4.0 0.00 0.35 0.02 91 1011.6
20260506084436 60 5 1.0 4.0 0.00 0.35 0.02 91 1011.6
20260506083954 60 24 1.0 5.0 0.00 0.35 0.02 92 1011.6
20260506083443 60 9 2.0 5.0 0.00 0.35 0.02 92 1011.5
20260506082939 60 28 0.0 3.0 0.00 0.35 0.02 92 1011.4
20260506082449 60 24 0.0 4.0 0.00 0.35 0.02 93 1011.4
20260506081945 60 24 2.0 4.0 0.00 0.35 0.02 93 1011.4
20260506081435 59 360 2.0 5.0 0.00 0.35 0.02 94 1011.4
20260506080933 59 9 1.0 5.0 0.00 0.35 0.02 94 1011.5
20260506080507 59 360 0.0 3.0 0.00 0.35 0.02 94 1011.5
20260506073446 58 26 2.0 4.0 0.00 0.35 0.02 94 1011.6
20260506072933 58 351 1.0 5.0 0.00 0.35 0.02 94 1011.6
20260506072450 57 345 2.0 5.0 0.00 0.35 0.02 94 1011.7
20260506071948 57 338 1.0 8.0 0.00 0.35 0.02 94 1011.7
20260506071437 58 334 4.0 8.0 0.00 0.35 0.02 94 1011.7
20260506070935 57 337 0.0 4.0 0.00 0.35 0.02 95 1011.7
20260506070445 57 5 0.0 4.0 0.00 0.35 0.02 94 1011.7
20260506062432 57 347 0.0 2.0 0.00 0.35 0.02 95 1011.6
20260506061948 57 351 0.0 2.0 0.00 0.35 0.02 95 1011.6
20260506061445 57 9 0.0 2.0 0.00 0.35 0.02 95 1011.6
20260506060932 57 120 0.0 0.0 0.00 0.35 0.02 95 1011.4
20260506060443 56 120 0.0 0.0 0.00 0.35 0.02 95 1011.5
20260506050941 56 32 0.0 0.0 0.04 0.35 0.02 95 1011.9
20260506050457 55 32 0.0 0.0 0.04 0.35 0.02 95 1011.8
20260506044934 55 32 0.0 0.0 0.12 0.35 0.02 94 1011.7
20260506044509 55 32 0.0 2.0 0.12 0.35 0.02 94 1011.6
20260506043944 55 32 0.0 3.0 0.12 0.35 0.02 94 1011.6
20260506043431 55 11 0.0 3.0 0.08 0.31 0.02 94 1011.4
20260506043015 55 9 1.0 3.0 0.08 0.31 0.02 94 1011.5
20260506042441 55 348 0.0 3.0 0.08 0.31 0.02 94 1011.5
20260506041953 55 350 1.0 3.0 0.08 0.31 0.02 94 1011.5
20260506041441 55 346 0.0 3.0 0.08 0.31 0.02 94 1011.5
20260506040936 55 340 0.0 4.0 0.08 0.31 0.02 94 1011.5
20260506040454 55 340 2.0 4.0 0.08 0.31 0.02 94 1011.5
20260506035943 55 337 1.0 3.0 0.08 0.31 0.02 94 1011.5
20260506035440 55 351 0.0 0.0 0.04 0.28 0.01 94 1011.5
20260506034956 55 351 0.0 0.0 0.00 0.24 0.00 94 1011.5
20260506034445 55 351 0.0 0.0 0.00 0.24 0.00 94 1011.6
20260506033942 55 5 0.0 0.0 0.00 0.24 0.00 94 1011.7
20260506033456 55 5 0.0 0.0 0.00 0.24 0.00 94 1011.7
20260506032951 55 5 0.0 0.0 0.00 0.24 0.00 94 1011.8
20260506032441 55 333 0.0 0.0 0.00 0.24 0.00 94 1011.6
20260506031938 55 331 0.0 0.0 0.00 0.24 0.00 94 1011.8
20260506031446 55 331 0.0 0.0 0.00 0.24 0.00 94 1011.8
20260506030944 55 331 0.0 2.0 0.00 0.24 0.00 94 1011.9
20260506030433 55 331 0.0 2.0 0.00 0.24 0.00 94 1011.9
20260506025950 55 331 0.0 2.0 0.00 0.24 0.00 94 1011.8
20260506025440 55 329 1.0 3.0 0.00 0.24 0.00 94 1011.9
20260506024937 55 329 1.0 2.0 0.00 0.24 0.00 94 1012.1
20260506024455 55 329 0.0 0.0 0.00 0.24 0.00 94 1012.1
20260506023943 55 329 0.0 0.0 0.00 0.24 0.00 94 1012.2
20260506023439 55 329 0.0 0.0 0.00 0.24 0.00 94 1012.1
20260506022948 55 329 0.0 0.0 0.00 0.24 0.00 94 1012.2
20260506022445 55 329 0.0 2.0 0.00 0.24 0.00 94 1012.3
20260506022000 55 329 0.0 2.0 0.00 0.24 0.00 94 1012.3
20260506021444 55 329 0.0 2.0 0.00 0.24 0.00 94 1012.1
20260506020941 55 329 1.0 1.0 0.00 0.24 0.00 94 1012.2
20260506020437 55 329 0.0 0.0 0.00 0.24 0.00 94 1012.3
20260506015945 55 329 0.0 0.0 0.00 0.24 0.00 94 1012.4
20260506015441 55 329 0.0 0.0 0.00 0.24 0.00 94 1012.4
20260506014937 55 329 0.0 2.0 0.00 0.24 0.00 94 1012.5
20260506014449 55 329 0.0 2.0 0.00 0.24 0.00 94 1012.5
20260506013946 55 328 0.0 0.0 0.00 0.24 0.00 94 1012.6
20260506013433 55 328 0.0 0.0 0.00 0.24 0.00 94 1012.6
20260506013011 55 328 0.0 0.0 0.00 0.24 0.00 94 1012.6
20260506012507 55 328 0.0 0.0 0.00 0.24 0.00 94 1012.7
20260506011941 55 328 0.0 0.0 0.00 0.24 0.00 94 1012.8
20260506011456 55 328 0.0 0.0 0.00 0.24 0.00 94 1012.8
20260506010944 55 328 0.0 0.0 0.00 0.24 0.00 94 1012.8
20260506010440 55 328 0.0 0.0 0.00 0.24 0.00 94 1012.7
20260506005956 55 328 0.0 0.0 0.00 0.24 0.00 93 1012.6
20260506005512 55 328 0.0 0.0 0.00 0.24 0.00 93 1012.6
20260506004956 55 328 0.0 0.0 0.00 0.24 0.00 93 1012.6
20260506004451 55 328 0.0 2.0 0.00 0.24 0.00 93 1012.5
20260506003945 55 328 0.0 2.0 0.00 0.24 0.00 93 1012.6
20260506003434 55 328 0.0 2.0 0.00 0.24 0.00 93 1012.7
20260506002949 55 328 0.0 1.0 0.00 0.24 0.00 93 1012.9
20260506002505 55 328 0.0 2.0 0.00 0.24 0.00 93 1012.9
20260506002002 55 328 0.0 2.0 0.00 0.24 0.00 93 1012.8
20260506001457 55 328 0.0 2.0 0.00 0.24 0.00 93 1012.9
20260506000945 55 328 0.0 3.0 0.00 0.24 0.00 93 1012.9
20260506000442 55 328 1.0 3.0 0.00 0.24 0.00 92 1012.9
20260506000015 55 338 1.0 2.0 0.00 0.24 0.00 92 1012.9
20260505235504 55 338 0.0 2.0 0.00 0.24 0.00 92 1013.0
20260505234940 56 342 1.0 2.0 0.00 0.24 0.00 92 1013.0
20260505234437 56 9 1.0 2.0 0.00 0.24 0.00 92 1013.0
20260505233953 56 10 0.0 2.0 0.00 0.24 0.00 92 1013.0
20260505233441 56 10 0.0 2.0 0.00 0.24 0.00 92 1013.0
20260505232939 56 10 0.0 0.0 0.00 0.24 0.00 92 1013.0
20260505232453 56 10 0.0 0.0 0.00 0.24 0.00 92 1013.1
20260505231939 56 10 0.0 0.0 0.00 0.24 0.00 92 1013.1
20260505231456 56 10 0.0 1.0 0.00 0.24 0.00 92 1013.1
20260505230946 57 10 0.0 2.0 0.00 0.24 0.00 92 1013.1
20260505230442 57 10 0.0 2.0 0.00 0.24 0.00 92 1013.2
20260505225935 57 10 0.0 0.0 0.00 0.24 0.00 92 1013.3
20260505225432 57 10 0.0 1.0 0.00 0.24 0.00 92 1013.3
20260505224941 57 10 0.0 2.0 0.00 0.24 0.00 91 1013.4
20260505224438 57 10 0.0 3.0 0.00 0.24 0.00 91 1013.4
20260505223954 57 10 1.0 3.0 0.00 0.24 0.00 91 1013.4
20260505223444 57 9 0.0 4.0 0.00 0.24 0.00 92 1013.5
20260505222940 57 9 1.0 4.0 0.00 0.24 0.00 92 1013.5
20260505222447 57 19 0.0 3.0 0.00 0.24 0.00 92 1013.5
20260505221946 57 16 1.0 4.0 0.00 0.24 0.00 92 1013.7
20260505221436 58 17 2.0 4.0 0.00 0.24 0.00 92 1013.7
20260505220934 58 5 1.0 4.0 0.00 0.24 0.00 92 1013.8
20260505220445 58 13 2.0 4.0 0.00 0.24 0.00 91 1013.8
20260505215942 58 14 0.0 3.0 0.00 0.24 0.00 91 1013.7